User: anonymous   Login
Location: �quirre
(50.4736°N, 2.2351°E)
Time: 19:18:16
(UTC+00:00)
Language:

CZ-2C R/B - Orbit

View from above orbital plane
View from above orbital plane
View from above satellite
View from above satellite

Ground track
Ground track

The orbit data is extracted from the following two-line orbital elements,

1 28222U 04012C   20295.91593767  .00000893  00000-0  57064-4 0  9994
2 28222  97.6936 258.9092 0045993 318.9486 102.6897 15.10510423905124
Epoch (UTC): 21 October 2020 21:58:57
Eccentricity: 0.0045993
inclination: 97.6936°
perigee height: 503 km
apogee height: 566 km
right ascension of ascending node: 258.9092°
argument of perigee: 318.9486°
revolutions per day: 15.10510423
mean anomaly at epoch: 102.6897°
orbit number at epoch: 90512

The dashed part of the orbit path shows where the satellite is in the earth's shadow,  

DLR